GFSMA_850_thetae_159.txt.gz
Theta_e
340 343 343 345 346 346 346 344 346 344 337 342 344 338 335 338 339 343 343 344 342 342 343 345 341 330 335 343 342 342 343 343 342 339 335 341 335 339 339 340 341 339 331
342 343 343 343 343 345 345 343 346 345 337 335 340 342 340 336 338 338 344 343 344 343 346 345 347 335 338 343 337 339 340 340 342 341 338 342 332 334 341 339 340 341 337
340 339 341 343 344 346 346 343 345 346 345 337 340 342 337 336 340 343 342 344 347 345 345 345 348 340 335 332 332 333 336 338 339 341 338 341 336 332 340 339 340 341 341
338 340 340 341 345 344 345 346 345 347 345 343 341 336 337 335 343 343 343 345 345 345 347 347 346 341 333 334 331 333 335 337 338 340 340 339 340 337 339 339 340 341 341
336 339 341 344 341 345 342 343 347 344 343 339 339 336 342 342 343 342 343 343 344 346 345 343 343 342 331 334 331 331 335 338 340 341 341 340 339 337 338 339 340 341 341
336 336 341 340 343 342 342 344 343 345 345 342 338 336 336 343 345 345 344 344 343 343 339 338 338 340 334 331 334 331 334 338 341 342 342 340 340 339 339 339 340 341 341
343 337 340 339 342 343 346 345 344 345 345 346 341 336 339 342 344 343 345 345 346 339 338 341 338 339 338 332 333 332 333 337 339 339 341 340 340 339 340 341 341 341 341
341 342 342 341 343 343 341 342 344 339 346 346 345 344 342 342 342 340 341 344 343 343 340 336 338 340 339 337 332 334 332 332 336 337 338 340 339 340 340 340 341 341 341
344 344 338 341 340 344 345 344 341 348 344 346 346 347 345 345 343 338 334 340 339 340 340 337 337 338 340 340 337 334 334 330 326 336 337 339 340 340 340 341 340 340 340
344 345 343 336 337 344 344 343 349 348 348 348 346 346 343 343 342 335 338 337 337 335 342 339 337 337 339 341 340 338 335 334 328 326 336 337 338 340 340 341 342 342 343
344 344 343 342 339 343 344 342 343 347 348 344 348 344 345 344 343 342 342 342 338 341 342 338 340 340 341 341 341 340 339 336 334 328 326 333 337 336 339 342 342 342 342
342 344 343 341 339 340 345 342 344 342 344 342 349 347 347 345 343 345 344 342 342 340 338 339 340 338 339 341 341 341 341 341 338 334 330 325 327 334 336 336 339 339 337
343 341 342 342 341 346 343 346 341 342 346 347 345 345 344 345 346 346 344 343 343 343 343 337 338 338 337 339 343 341 341 341 341 340 336 334 327 323 328 332 334 332 330
345 346 344 346 346 343 346 344 344 344 349 348 347 347 342 347 347 347 346 346 344 343 341 342 334 337 338 341 343 342 340 340 341 342 342 341 336 333 325 323 324 326 327
345 345 345 347 343 345 345 346 344 344 348 346 346 348 347 346 343 345 347 346 345 345 341 341 339 338 339 342 343 344 342 339 339 341 342 342 343 342 336 334 329 325 323
344 344 344 345 345 343 344 344 345 347 345 345 347 346 347 346 344 345 346 348 345 344 343 344 342 338 341 341 344 343 337 339 340 339 341 341 342 343 342 342 336 335 335
345 344 342 344 345 346 343 341 344 342 342 346 346 345 344 344 344 345 344 347 346 346 345 344 343 343 342 342 344 342 340 340 339 340 341 342 343 343 344 343 344 343 339
343 344 346 345 346 343 344 346 344 345 343 347 344 344 345 345 345 344 344 345 346 346 345 346 343 345 343 342 344 339 338 341 342 342 342 342 344 345 345 345 344 346 346
344 344 344 343 344 343 342 341 341 344 344 347 343 342 346 346 343 343 344 342 344 343 344 344 342 343 345 344 343 342 342 343 344 342 341 340 342 343 343 343 343 344 344
344 345 344 343 343 343 341 344 344 343 343 345 344 346 341 343 345 345 345 345 344 344 343 343 341 343 344 344 344 343 344 344 344 342 341 339 338 334 332 331 331 331 338
343 341 343 343 346 345 344 344 346 346 345 346 345 346 346 347 343 343 342 344 343 344 345 343 344 342 342 344 343 345 344 343 343 343 342 338 335 334 335 333 329 327 326
345 347 345 346 345 343 344 344 344 345 346 346 347 346 347 344 344 343 342 339 339 337 341 342 341 342 340 341 343 344 344 343 343 343 342 339 334 333 334 331 329 327 325
345 345 345 344 344 343 343 343 343 344 345 345 344 345 344 345 345 344 344 344 343 342 342 342 343 342 342 340 343 343 342 342 343 342 341 341 340 337 333 329 328 328 325
344 344 342 344 343 342 342 341 341 343 341 341 341 341 341 340 340 340 339 340 342 343 342 342 342 342 342 341 341 340 341 341 341 342 341 341 339 333 330 329 329 322 317
342 343 342 343 342 342 342 342 342 340 338 337 337 340 339 340 341 340 340 339 339 341 341 341 341 340 339 339 339 339 339 338 339 340 340 340 337 333 330 328 329 325 320
342 341 340 339 341 342 342 342 342 342 340 338 338 342 339 337 336 337 338 339 341 341 341 341 340 339 338 338 338 337 337 337 339 340 339 337 335 331 326 324 326 325 327

GFSMA_850_thetae_162.txt.gz
Theta_e
338 342 343 346 345 346 344 343 344 343 337 336 334 341 338 338 337 336 341 342 341 342 343 344 340 333 342 341 342 341 342 341 342 341 337 335 335 337 339 339 340 338 336
342 342 343 344 343 345 342 343 345 345 344 338 337 340 341 337 336 337 341 342 343 342 345 343 342 334 341 339 338 338 338 339 341 339 338 338 342 340 336 339 338 340 339
340 339 341 342 343 345 344 342 345 345 345 341 339 338 337 340 341 339 342 343 346 343 345 343 342 334 334 331 331 332 333 335 338 340 338 337 342 333 332 339 338 339 340
338 339 340 341 343 344 345 345 345 344 341 339 339 339 337 342 342 342 343 344 346 345 346 344 341 334 334 333 331 332 334 336 336 337 339 338 340 332 335 339 338 339 340
337 341 340 342 341 345 343 343 345 342 343 340 338 337 341 341 341 342 343 345 344 345 344 341 341 336 333 335 331 331 335 339 340 340 340 339 338 337 338 338 338 339 340
338 336 341 342 340 344 343 345 343 345 345 339 339 336 337 341 341 341 343 342 342 342 340 341 340 339 333 336 333 329 335 339 341 342 341 340 338 336 337 338 338 340 340
343 343 337 340 342 342 344 345 342 343 342 346 344 337 338 340 342 341 343 344 344 338 338 341 339 340 336 333 335 330 333 337 337 341 340 339 339 338 338 339 339 340 341
343 339 340 342 340 340 343 343 342 341 346 346 345 345 342 341 342 341 340 342 340 342 341 338 339 340 339 336 334 333 327 334 337 338 340 340 340 339 340 340 340 341 341
344 343 339 341 342 344 343 343 341 347 343 346 345 345 345 344 344 341 336 342 339 338 340 338 337 338 340 339 336 335 331 326 335 337 339 341 340 340 339 340 341 341 341
343 344 343 336 337 345 343 342 345 346 345 347 348 344 344 342 341 336 338 338 336 336 342 338 340 338 339 340 340 338 334 331 326 336 337 338 340 340 340 340 340 341 341
341 344 344 343 343 344 344 342 341 344 346 343 349 345 345 344 343 344 341 341 341 338 343 338 339 339 341 341 340 340 339 335 331 325 332 336 337 341 341 342 341 341 342
339 343 345 344 340 340 343 344 342 343 345 344 346 346 346 346 345 344 344 343 342 342 339 337 339 339 339 342 341 341 340 340 336 332 325 325 334 336 340 341 341 341 341
343 340 343 344 340 342 341 343 342 341 347 348 346 346 342 346 346 345 345 345 344 342 342 342 338 338 337 339 342 340 341 340 341 340 335 331 323 328 335 336 337 337 337
343 345 343 345 345 345 343 343 341 342 347 349 346 345 344 344 345 346 345 346 344 343 340 337 337 337 337 339 343 342 340 340 341 341 342 340 335 330 322 325 328 328 327
344 345 344 344 345 344 344 342 344 344 344 347 346 345 347 346 344 343 344 345 343 345 342 342 340 338 337 341 342 343 342 340 339 341 341 342 342 340 334 331 324 321 321
345 345 343 344 345 346 344 343 344 344 346 345 345 346 346 346 345 344 344 346 346 344 344 343 344 340 341 340 342 342 341 336 340 338 340 341 341 342 342 339 334 333 331
344 343 344 343 342 344 344 342 342 342 342 341 345 344 346 345 344 346 344 344 346 346 345 344 344 344 343 341 344 342 341 340 340 338 340 341 342 342 343 343 342 341 337
345 344 343 343 344 345 345 342 342 344 344 344 344 344 343 345 345 345 344 344 344 344 344 345 344 342 345 342 343 343 338 338 342 342 340 341 342 344 344 344 344 343 344
344 343 343 344 344 344 344 343 342 342 342 344 343 347 342 344 344 343 345 344 343 344 343 344 343 342 344 344 343 343 342 341 343 343 341 340 340 342 344 343 343 344 344
343 342 344 343 343 343 343 343 341 341 344 343 342 345 344 343 343 343 344 344 344 344 343 343 344 342 343 344 344 343 343 343 343 344 342 339 340 337 333 331 331 331 336
344 342 343 345 343 343 343 345 343 345 346 344 345 345 345 345 346 344 344 344 344 345 342 343 344 342 343 342 342 343 343 343 343 343 343 340 337 334 333 334 330 327 327
344 344 344 342 343 344 345 343 343 344 344 344 345 345 346 343 344 346 342 341 342 340 339 337 343 341 341 341 340 341 343 343 343 342 342 342 341 333 332 333 329 327 325
343 343 343 343 344 344 344 343 343 343 343 344 344 344 343 344 343 344 344 343 343 343 342 341 342 343 342 342 341 341 340 341 342 342 342 342 341 333 333 337 332 326 326
343 343 343 344 344 343 342 341 341 341 342 342 342 342 341 341 341 339 339 339 341 341 342 342 342 342 342 341 341 341 340 340 340 340 341 340 338 337 336 328 325 326 322
340 342 343 342 340 341 341 340 341 342 341 339 339 339 340 340 340 341 341 341 340 341 341 341 341 341 340 339 338 339 339 338 338 338 339 338 338 337 334 327 323 323 316
341 341 341 342 342 341 342 342 342 342 342 341 341 341 339 340 338 337 338 339 339 339 340 340 340 339 338 338 337 337 337 337 338 339 338 336 334 332 327 324 321 323 321

GFSMA_850_thetae_165.txt.gz
Theta_e
338 342 344 345 344 343 341 343 345 344 344 337 336 341 341 339 337 338 338 341 341 342 343 341 340 334 341 340 342 342 341 342 341 341 339 337 335 336 339 340 339 337 336
342 342 343 344 343 344 341 343 345 345 345 341 338 339 338 338 338 336 340 342 342 342 343 341 341 333 335 336 334 337 338 339 341 341 340 337 337 336 336 339 339 339 338
340 340 341 341 343 344 343 342 345 345 344 343 339 339 339 341 339 339 341 342 344 342 343 343 341 332 333 332 329 331 332 336 337 340 341 339 338 341 342 337 338 338 340
338 338 339 340 343 344 344 344 345 341 343 340 338 341 341 340 340 340 341 343 345 344 344 344 340 333 331 334 330 332 333 334 335 336 338 338 338 341 334 334 339 338 340
337 340 340 340 341 344 343 344 345 344 344 338 338 338 337 339 337 340 342 343 343 344 345 341 339 336 331 339 335 333 338 339 340 340 340 339 338 339 333 340 340 338 339
337 335 339 341 341 343 343 345 343 344 344 345 340 336 337 341 341 339 339 342 342 342 340 339 339 339 333 337 337 337 340 338 340 342 341 340 338 338 338 339 340 340 339
343 344 340 340 339 342 343 346 343 341 344 346 345 340 341 339 340 341 342 343 344 339 337 340 339 340 337 334 334 335 338 336 340 341 340 340 338 336 337 338 339 340 340
342 339 337 341 340 340 343 344 343 345 345 346 345 345 345 343 343 342 337 342 342 342 341 338 338 340 339 337 335 332 327 335 339 340 340 339 339 339 338 338 339 340 341
344 342 341 341 343 343 344 344 342 344 347 346 346 344 347 345 345 340 337 341 338 336 341 338 336 340 340 339 338 335 330 326 337 340 341 339 340 339 340 340 340 341 341
343 344 339 341 337 345 343 344 346 348 346 346 347 344 344 343 347 341 340 338 339 338 342 339 339 339 340 340 339 338 334 328 326 336 338 340 340 340 339 340 341 341 341
342 343 342 339 338 346 345 342 341 342 345 343 346 346 347 345 343 344 345 342 341 341 342 338 339 338 340 340 340 340 338 334 328 323 335 336 341 341 341 340 340 341 341
340 345 344 343 341 342 343 344 342 343 343 342 343 344 344 346 345 345 343 344 344 342 342 339 336 339 340 341 340 340 340 339 336 330 323 331 336 342 342 342 342 341 342
343 341 344 343 343 340 342 341 342 342 345 347 346 345 342 346 346 346 345 346 343 343 342 341 338 337 338 339 341 340 340 340 341 339 333 326 325 335 337 340 341 340 340
344 344 342 343 344 346 343 342 340 341 343 346 345 343 344 342 344 345 344 345 343 345 340 340 337 337 337 339 342 342 341 339 340 341 341 339 332 323 326 332 334 335 335
344 343 345 344 344 344 344 344 341 342 343 343 345 344 346 346 345 344 342 345 346 346 346 343 341 338 337 342 343 343 343 341 339 339 340 341 342 337 331 324 322 325 326
344 344 345 343 343 344 346 344 342 342 343 344 344 344 345 345 344 344 345 344 344 347 347 345 343 343 341 340 341 343 343 337 338 337 338 339 340 342 342 336 333 330 326
344 344 344 344 344 342 344 343 341 341 340 342 341 343 343 345 344 343 343 344 345 346 347 346 343 343 344 341 343 343 342 339 340 340 340 341 342 342 342 342 342 340 335
343 344 345 344 343 342 344 344 343 341 341 343 343 342 344 343 343 342 343 342 342 343 345 343 344 343 343 343 343 343 342 338 339 343 341 341 341 343 344 344 344 343 343
343 345 345 343 343 344 344 344 343 343 342 340 340 341 342 342 342 343 342 342 343 343 342 343 345 343 343 345 344 344 343 341 341 343 342 341 339 342 343 343 343 343 344
343 344 344 342 343 344 342 342 342 342 340 342 344 342 342 342 344 341 343 343 343 343 343 342 342 342 343 343 344 344 344 343 343 343 343 342 340 339 335 332 331 331 332
342 343 342 342 343 343 342 342 342 344 343 344 345 345 344 344 344 345 345 343 343 343 344 343 338 341 342 343 342 341 343 343 343 343 343 342 339 336 332 332 332 330 329
343 343 342 343 342 343 343 342 343 344 342 344 344 344 344 345 345 343 344 345 340 342 342 342 340 342 342 342 341 341 342 343 343 341 342 341 339 341 340 331 331 337 336
343 343 343 343 343 342 341 343 344 343 343 343 344 344 345 344 343 344 343 344 343 342 341 342 342 342 342 342 342 341 340 340 341 341 341 339 340 340 332 329 332 336 331
343 343 343 343 343 343 344 343 343 342 342 342 342 343 343 342 342 342 340 338 338 339 340 342 342 342 342 341 340 340 340 340 340 340 339 336 336 335 332 330 325 323 323
343 343 343 343 343 343 343 342 341 341 341 341 341 341 340 340 340 341 342 341 341 340 340 341 340 340 340 339 339 339 338 338 339 339 338 338 336 334 330 322 316 314 315
340 341 342 341 340 340 340 340 341 341 341 342 341 341 340 341 340 338 338 340 340 340 339 339 339 338 338 337 336 336 336 336 337 338 338 336 333 330 328 324 322 320 318

GFSMA_850_thetae_168.txt.gz
Theta_e
343 343 345 350 348 346 350 349 348 348 345 341 342 339 343 343 340 343 344 340 341 341 342 340 340 335 335 340 341 342 343 342 343 341 339 336 336 337 339 339 339 339 336
343 344 344 347 344 351 351 349 346 347 345 344 349 339 339 340 337 338 346 345 341 341 341 339 340 334 332 334 332 332 334 337 339 341 342 341 338 335 335 338 339 339 338
342 342 342 342 344 344 344 343 345 346 349 346 340 344 345 340 339 340 348 348 349 345 341 339 338 333 331 334 329 330 330 331 334 336 340 341 340 336 338 335 338 338 339
339 340 340 343 342 344 347 352 351 352 351 347 341 347 344 343 339 340 347 348 349 349 347 339 338 335 331 335 329 329 335 337 336 333 334 337 339 337 340 342 337 339 338
338 338 339 339 341 345 350 351 351 345 348 346 344 337 341 338 336 335 338 346 349 348 349 342 339 338 332 333 333 334 339 340 341 341 338 339 338 338 341 337 338 338 338
337 336 338 339 340 345 351 351 344 341 346 346 345 344 342 346 340 337 339 347 350 349 348 347 348 348 336 333 332 332 334 337 340 341 341 340 339 339 334 336 340 341 339
340 340 339 340 342 343 348 345 346 343 350 344 348 346 345 346 344 345 346 348 348 347 348 349 347 347 345 341 334 328 326 338 340 340 340 339 338 337 338 340 340 340 340
342 338 339 344 340 348 342 345 343 351 350 348 351 350 348 350 348 347 345 346 342 348 347 347 345 343 347 345 336 331 325 337 341 340 339 340 338 337 337 338 339 340 341
342 343 339 342 342 344 352 344 348 344 351 352 345 351 349 346 349 346 342 346 341 346 345 342 342 347 347 347 345 340 327 329 337 340 340 340 339 339 338 338 339 340 341
343 343 338 341 340 349 347 348 350 348 348 350 352 348 347 347 348 346 345 345 344 344 347 345 344 343 346 347 340 338 332 324 332 336 339 340 340 339 340 340 339 340 341
342 343 344 338 338 350 346 343 348 341 351 351 351 351 350 350 345 347 346 348 348 349 347 345 346 346 347 348 347 340 339 333 324 329 336 340 341 340 339 340 341 341 341
349 345 344 342 340 347 344 343 345 346 347 346 349 348 350 351 351 349 345 345 347 349 348 348 347 346 347 348 345 340 340 340 335 327 326 337 342 342 341 340 340 341 341
347 346 344 344 347 340 340 339 342 351 351 352 353 350 350 350 352 351 347 347 347 349 349 348 343 343 345 348 347 340 340 340 341 338 331 324 335 340 343 343 343 342 342
348 350 344 348 343 342 344 343 349 349 348 348 353 348 349 349 349 351 348 348 346 348 348 350 346 346 347 349 348 342 341 339 340 341 341 337 328 325 335 337 339 339 339
349 343 343 343 346 346 348 350 349 348 346 345 350 349 347 349 349 348 349 348 349 347 344 349 348 345 348 347 346 347 347 341 340 339 340 341 341 335 327 322 327 328 328
349 348 344 345 343 344 349 349 348 349 350 349 348 351 346 350 348 348 348 347 347 346 346 346 348 348 348 348 343 345 344 339 338 339 339 340 340 341 341 335 330 325 323
342 347 343 344 343 348 346 346 347 349 348 349 347 350 350 349 349 349 348 346 348 347 344 350 349 346 343 344 344 343 342 341 339 341 340 341 342 342 342 342 342 338 334
344 341 344 344 343 345 345 343 349 348 348 349 350 350 350 349 350 349 348 345 349 348 347 350 344 349 347 344 343 345 344 341 341 342 342 341 341 342 344 344 344 343 342
343 344 342 344 345 348 347 345 349 350 350 348 349 349 349 350 351 348 350 349 348 348 348 347 350 347 348 345 344 344 344 343 341 342 343 342 340 341 342 343 343 343 344
347 348 343 348 347 345 349 350 349 348 349 349 350 351 351 350 350 350 349 348 349 347 346 348 341 341 345 346 345 346 347 344 343 338 342 341 340 340 337 333 331 331 332
348 348 349 346 348 349 349 346 343 348 343 344 348 350 348 348 344 345 346 345 344 343 346 348 346 346 343 344 344 344 344 346 343 341 337 338 339 336 332 334 336 331 328
343 347 348 348 348 349 344 342 343 345 344 344 347 349 347 344 345 345 343 343 345 341 341 343 342 342 342 344 342 341 342 343 344 341 339 334 337 337 340 338 334 334 334
346 349 346 347 348 345 341 342 342 344 346 346 343 344 347 345 346 344 343 343 342 343 343 341 341 342 343 343 343 343 341 340 343 341 339 336 334 337 336 333 329 331 331
344 344 344 345 344 344 343 343 343 345 343 343 343 343 345 345 344 343 343 341 338 339 339 340 342 342 342 341 340 341 342 340 340 340 339 334 331 331 333 329 326 325 323
341 342 344 345 344 343 343 344 343 343 341 341 341 341 342 342 342 341 342 342 341 341 340 340 340 340 340 339 339 338 340 339 340 340 339 335 330 330 328 325 320 318 321
342 343 344 344 343 343 342 342 341 341 341 341 341 341 339 339 340 341 340 339 341 340 339 339 339 337 337 337 336 336 336 340 340 338 337 334 332 329 327 324 322 319 318

GFSMA_850_thetae_171.txt.gz
Theta_e
348 348 350 351 350 349 351 353 353 354 353 350 350 348 347 346 346 346 347 341 341 341 342 338 335 331 331 335 337 340 342 343 342 342 337 336 337 338 338 339 339 339 336
350 350 352 350 349 349 350 352 352 353 352 351 350 347 346 341 345 348 349 347 343 340 340 335 334 331 331 334 330 330 331 332 336 339 341 340 337 336 336 338 339 339 339
345 351 351 350 351 352 347 348 355 353 352 351 349 350 349 342 350 351 349 350 349 348 336 334 336 333 332 335 332 339 332 332 331 334 337 340 341 337 336 336 340 339 339
345 347 349 349 345 350 350 349 353 352 350 348 348 349 347 349 342 352 350 350 348 349 346 337 338 335 331 334 331 333 338 341 339 335 333 334 340 339 336 338 338 339 339
339 349 348 350 344 352 349 350 353 350 350 350 348 346 348 347 336 343 349 349 349 348 346 344 344 342 336 333 333 333 336 338 342 341 338 336 338 337 336 339 341 337 339
340 337 347 346 344 350 351 352 350 350 349 350 347 347 347 349 350 349 349 349 350 348 349 345 348 346 345 337 333 326 331 340 340 341 341 340 339 338 338 340 339 338 338
347 337 348 347 346 347 354 353 354 351 350 351 353 349 349 350 348 348 350 349 350 347 347 350 349 349 346 345 334 328 327 342 342 340 340 339 339 337 336 336 336 338 339
348 344 346 346 347 349 348 355 350 351 350 352 351 352 347 343 350 347 348 348 348 347 347 349 348 347 346 348 339 335 324 338 341 340 339 339 338 336 337 340 340 340 339
352 351 346 349 344 347 353 348 354 346 353 349 348 352 349 350 339 346 347 348 346 347 345 347 348 349 346 346 347 341 327 331 337 341 339 339 338 337 337 337 338 338 340
352 353 346 340 343 351 348 352 352 353 345 349 351 349 352 347 351 347 347 349 349 348 348 347 348 349 347 349 339 338 332 323 334 337 341 340 339 340 339 339 339 339 340
352 352 344 341 342 350 348 351 352 348 351 350 350 348 349 349 347 347 347 349 349 348 349 346 347 347 346 346 348 340 338 331 323 334 339 342 340 339 340 340 340 340 341
349 351 352 352 351 353 347 353 353 352 351 349 352 346 347 348 348 349 346 344 345 347 348 348 347 347 345 348 344 342 340 339 332 324 335 342 342 341 340 341 341 341 341
347 350 350 353 350 343 353 353 347 353 352 353 351 351 347 347 347 350 349 346 347 346 349 348 346 347 347 347 348 341 338 340 340 336 326 332 341 343 343 342 340 341 341
344 349 345 354 352 352 353 353 351 350 353 351 351 352 349 348 346 349 348 348 346 347 348 349 348 347 347 348 349 343 341 339 339 341 340 331 325 335 340 343 343 343 342
348 348 350 351 352 352 354 354 351 348 351 349 350 349 343 350 349 348 346 350 345 345 345 344 349 347 348 349 347 346 347 341 339 338 339 341 339 330 324 330 334 336 337
350 352 351 352 351 352 352 350 349 350 351 349 352 353 343 352 346 347 350 348 348 346 346 345 348 348 348 348 345 344 345 343 338 339 338 340 340 341 340 332 326 324 324
349 349 352 351 352 352 353 353 348 352 352 350 350 351 349 350 349 349 347 347 348 347 349 347 350 346 344 350 347 344 344 345 343 341 341 341 342 342 342 342 342 337 333
352 350 351 351 353 352 352 352 352 352 352 350 350 350 349 349 350 347 347 350 350 347 350 347 350 350 349 345 343 345 347 346 345 340 343 342 342 342 343 344 344 343 343
351 351 352 353 352 352 352 351 351 351 350 349 350 350 349 350 349 350 352 351 350 349 349 349 348 348 347 347 345 346 346 346 343 341 343 342 341 340 341 342 342 343 343
351 351 350 352 352 351 352 351 352 352 350 350 350 351 350 350 349 351 350 352 347 346 347 349 348 341 342 345 347 347 346 345 343 339 340 341 340 339 338 334 331 331 331
351 352 351 351 351 352 350 351 351 351 351 351 351 351 351 349 347 347 345 347 348 344 341 344 347 349 347 345 346 347 346 346 342 340 340 340 339 336 333 332 337 338 336
351 350 350 349 350 348 349 348 346 348 350 350 349 350 349 346 345 344 344 344 343 343 342 341 343 343 342 343 344 344 342 345 344 342 341 333 333 336 336 339 337 334 333
353 352 351 351 348 349 348 348 342 342 349 347 348 347 348 347 346 346 345 344 344 343 343 343 342 342 341 343 346 346 344 343 344 341 337 335 335 336 338 336 332 330 330
350 350 349 349 348 345 343 343 342 342 346 347 345 344 346 347 347 345 345 343 341 338 339 339 340 342 342 342 342 343 344 343 342 340 338 334 331 333 333 330 326 325 319
344 344 344 346 346 343 344 344 343 345 346 345 341 341 341 344 343 343 345 342 342 341 340 339 341 341 341 340 339 339 340 339 339 340 337 337 331 330 328 326 321 317 318
342 342 342 342 343 343 344 344 343 345 344 342 341 341 340 340 340 340 340 340 340 340 340 340 338 338 337 337 337 337 339 339 340 338 336 334 332 328 326 323 321 320 319

GFSMA_850_thetae_174.txt.gz
Theta_e
344 347 350 348 350 344 351 350 354 354 353 349 351 348 347 346 346 346 346 340 340 340 341 337 334 328 329 333 334 336 341 343 341 340 337 335 338 339 338 339 338 339 337
345 348 345 353 349 348 352 355 346 351 350 351 351 341 340 340 345 349 349 347 344 337 335 334 335 329 331 333 330 330 330 331 334 338 340 339 335 338 339 337 338 338 339
349 350 352 349 351 345 350 349 348 354 352 351 348 348 350 342 344 350 348 350 349 347 340 335 336 331 331 333 329 330 337 335 331 331 334 338 341 336 336 335 337 338 338
345 349 348 350 344 343 348 349 348 351 349 349 348 351 347 343 347 350 352 345 350 348 338 340 341 342 336 332 331 332 340 339 340 338 332 335 340 340 336 334 337 339 338
341 350 349 350 342 348 349 347 347 350 350 350 349 346 349 348 340 345 347 351 349 346 347 343 347 347 343 338 331 324 332 342 342 341 338 332 334 339 337 335 337 338 339
344 344 348 347 341 350 351 354 350 342 349 350 352 348 347 350 350 349 348 350 347 349 348 346 347 348 346 344 333 324 331 342 341 341 341 339 338 338 335 335 337 338 336
345 339 344 349 340 350 346 352 348 352 351 351 347 339 334 342 347 350 350 349 347 348 348 348 349 346 348 347 342 330 327 341 340 339 339 339 339 338 338 338 339 340 336
352 344 347 349 349 349 349 341 348 351 347 351 347 340 339 333 344 347 349 349 346 348 347 346 349 347 348 347 339 333 324 338 342 339 339 339 338 337 338 336 332 337 336
352 350 347 351 351 345 350 347 347 350 346 351 351 350 340 341 333 345 348 348 347 347 346 346 347 342 345 347 339 336 326 334 339 341 339 338 337 337 338 339 340 338 338
351 352 349 342 340 350 348 349 352 351 348 349 341 350 352 351 347 345 348 348 347 345 344 348 345 341 344 349 344 339 333 323 336 341 340 339 339 338 338 339 340 339 340
351 352 351 342 342 349 350 354 351 345 348 348 353 348 350 346 336 347 348 350 348 347 346 345 345 343 343 344 344 340 339 331 325 338 342 341 339 340 340 342 339 340 340
347 352 352 345 343 348 339 352 343 345 345 344 348 347 350 348 347 348 347 346 348 349 347 347 347 347 345 346 342 341 338 339 331 327 341 342 341 340 340 340 340 340 341
350 349 346 342 345 342 354 350 347 341 346 346 341 349 346 352 346 344 346 348 347 347 348 348 345 347 346 345 344 344 339 338 339 334 326 340 342 342 341 340 341 341 341
346 351 348 342 348 354 343 354 345 353 350 353 350 347 345 349 350 349 348 345 344 347 350 349 348 346 346 345 347 346 341 339 337 339 338 327 332 340 343 343 342 342 342
345 347 347 345 350 348 349 353 349 353 352 346 345 348 343 350 348 347 348 350 346 346 345 351 349 348 346 346 346 341 343 339 338 337 338 340 335 326 327 336 339 342 342
347 331 348 350 349 350 354 351 348 350 348 344 350 351 348 349 349 351 346 347 348 348 348 346 345 349 347 347 347 344 343 342 339 339 337 339 339 341 336 328 324 325 328
350 349 347 352 352 348 351 350 346 349 350 348 348 348 348 346 344 349 351 349 346 347 349 347 346 347 344 344 345 342 345 342 343 340 341 340 341 341 341 341 340 334 330
348 348 348 349 343 345 352 352 348 350 348 347 347 348 348 348 349 347 343 347 348 349 346 347 349 348 346 344 346 346 346 345 345 342 342 341 341 341 341 343 343 342 342
344 348 348 344 345 350 347 347 348 349 349 351 349 347 348 346 349 346 349 350 351 348 348 349 347 345 344 344 347 346 346 345 345 343 342 343 342 340 341 341 342 342 343
348 346 350 349 348 347 350 352 349 348 346 349 349 350 350 350 349 348 347 346 348 347 348 348 347 346 342 341 340 346 347 346 345 343 340 341 340 339 338 335 332 331 331
348 347 348 347 350 347 350 350 350 351 349 346 347 349 349 349 345 346 348 345 346 349 346 343 340 340 342 340 343 341 345 346 344 341 340 340 339 339 337 335 333 340 338
349 348 348 349 347 348 348 349 349 345 348 346 346 346 346 346 345 344 345 344 344 343 343 342 342 343 343 343 342 340 342 345 341 337 339 336 338 336 335 336 337 334 332
346 346 347 348 346 346 349 347 349 348 346 343 347 346 347 347 346 345 345 345 344 343 343 343 343 343 342 342 341 341 342 345 345 340 339 336 334 336 336 334 332 328 328
349 348 350 350 349 349 344 347 347 346 342 343 347 346 346 348 346 347 347 344 343 342 339 338 339 341 341 341 342 344 345 344 343 341 337 335 332 333 332 328 325 322 319
347 347 349 346 347 346 344 343 342 343 342 345 346 342 342 342 342 343 346 344 342 341 340 340 339 341 341 340 340 340 341 340 341 338 337 337 334 330 328 326 323 319 320
348 346 343 343 342 343 343 343 344 343 346 345 344 341 341 341 341 341 344 343 340 340 340 340 340 339 338 338 338 337 337 340 339 338 336 334 333 326 325 324 320 319 320